TITAN 3C TRANSTAGE DEB, 26528

Orbit data source: Space-Track

TITAN 3C TRANSTAGE DEB, 26528 is space debris in HEO originally from a launch on Tue, 21 Dec 1965 UTC launched from the Air Force Eastern Test Range (AFETR). Debris objects in space refer to the collection of defunct objects orbiting the Earth. Examples of debris include non-operational satellites, rocket bodies, and fragments generated from explosions, collisions, or faulty payload assembly.

Loading next visibility...
Identifier
26528, 1965-108AP
Orbit
HEO
Country
Flag of USUS
Related business
Manufacturer
Unknown
Mission
Spacecraft
Bus & Motor
Unknown
Mass
Unknown
Launch date (UTC)
1965-12-21 (60 years ago)
Launch vehicle
Unknown
Launch site
Air Force Eastern Test Range (AFETR)
Object type
Payload
Rocket body
Debris
Shape & HBR
Unknown shape, 0.1 m
Radar Cross Section
Medium (>0.1 m² and <1 m²)

Expand to show TLE details & history
Last TLE update: 2 months ago

TLE from 2 months ago
0 TITAN 3C TRANSTAGE DEB
1 26528U 65108AP  26067.22045376 -.00000175  00000-0 -37199-2 0  9999
2 26528  27.5724 324.5090 6658673 235.8381 336.4465  2.68043131265738
Epoch: 2026-03-08T05:17Z
TLE epoch observation values (Epoch: 2026-03-08T05:17:27.204Z)
Latitude
18.17141°
Longitude
-139.55606°
Altitude
7,038.434 km
Speed
6.42 km/s
True Right ascension
07h 02m 57s
True Declination
18° 07' 02"
Sunlit
Object was in daylight at epoch
Visualization orbit readout
Latitude
Unknown
Longitude
Unknown
Altitude
Unknown
Speed
Unknown
Apparent Right ascension
Unknown
Apparent Declination
Unknown
Sunlit
N/A
Visualization observer readout
Local Sidereal Time
08:32:04
Azimuth
Unknown
Elevation
Unknown
Doppler factor
Unknown
Orbital elements
Apogee altitude
30,094.846 km
Perigee altitude
937.461 km
Semi-major axis
21,894.291 km
Eccentricity
0.66587
Inclination
27.5724°
RAAN
324.509°
Arg. of periapsis
235.8381°
True anomaly
261.7946°
Mean anomaly
336.4465°
Eccentric anomaly
305.3158°
Mean motion
0.66996 °/min
Orbital period
537.35 mins
BSTAR
-0.0037199
Loading maneuver chart data...
Computing Atmospheric mass density...

Documentation

Showing up to 5 results
|